This is the latest recevied weather packets stored in our database for station/object N4BBA. If no packets are shown the sender has not sent any weather packets the latest 10 day(s).
| Time | Temp. | Humidity | Pressure | Rain* | Wind** | Luminosity | Snow |
|---|---|---|---|---|---|---|---|
| 1777733724 | 11.67° C | 97% | 1012.9 hPa | 1.27 mm | - | 121 W/m² | - |
| 1777733421 | 11.67° C | 97% | 1012.7 hPa | 0 mm | - | 113 W/m² | - |
| 1777733117 | 11.67° C | 97% | 1012.8 hPa | 1.78 mm | - | 107 W/m² | - |
| 1777732814 | 11.67° C | 97% | 1012.8 hPa | 1.78 mm | - | 112 W/m² | - |
| 1777732510 | 11.67° C | 97% | 1013 hPa | 0 mm | - | 89 W/m² | - |
| 1777732209 | 11.67° C | 97% | 1012.8 hPa | 1.27 mm | - | 82 W/m² | - |
| 1777731905 | 11.67° C | 97% | 1012.9 hPa | 1.27 mm | - | 71 W/m² | - |
| 1777731601 | 11.67° C | 96% | 1012.7 hPa | 0 mm | - | 65 W/m² | - |
| 1777731299 | 11.67° C | 97% | 1012.9 hPa | 0 mm | - | 50 W/m² | - |
| 1777730996 | 11.67° C | 96% | 1012.6 hPa | 1.78 mm | - | 48 W/m² | - |
| 1777730695 | 11.67° C | 96% | 1012.3 hPa | 1.78 mm | - | 59 W/m² | - |
| 1777730391 | 11.67° C | 96% | 1012.3 hPa | 0 mm | - | 81 W/m² | - |
| 1777730087 | 11.67° C | 96% | 1012 hPa | 0 mm | - | 86 W/m² | - |
| 1777729784 | 11.67° C | 96% | 1012.3 hPa | 1.78 mm | - | 66 W/m² | - |
| 1777729481 | 11.67° C | 96% | 1011.9 hPa | 1.78 mm | - | 69 W/m² | - |
| 1777729177 | 11.67° C | 96% | 1011.7 hPa | 0 mm | - | 57 W/m² | - |
| 1777728874 | 11.67° C | 96% | 1011.8 hPa | 1.27 mm | - | 73 W/m² | - |
| 1777728571 | 11.67° C | 96% | 1011.8 hPa | 1.27 mm | - | 97 W/m² | - |
| 1777728268 | 11.67° C | 96% | 1011.8 hPa | 0 mm | - | 140 W/m² | - |
| 1777727965 | 11.67° C | 96% | 1012.1 hPa | 1.78 mm | - | 127 W/m² | - |
| 1777727662 | 11.67° C | 96% | 1011.8 hPa | 1.78 mm | - | 131 W/m² | - |
| 1777727359 | 11.67° C | 96% | 1012 hPa | 1.27 mm | - | 126 W/m² | - |
| 1777727056 | 11.67° C | 96% | 1011.8 hPa | 1.27 mm | - | 103 W/m² | - |
| 1777726753 | 11.67° C | 96% | 1011.7 hPa | 0 mm | - | 82 W/m² | - |
| 1777726451 | 11.67° C | 96% | 1011.6 hPa | 1.78 mm | - | 89 W/m² | - |
* Rain latest hour (hover to see other rain measurements)
** Current wind speed in m/s (hover to see current wind gust speed)